sat.trackr.live / text

‹ back to catalog

STPSAT-6

NORAD 49817 · 2021-118A

PAYLOAD ACTIVE UNKNOWN

§ Identity

Operator
Country
US
Launch date
2021-12-07
Launch site
AFETR
Launch vehicle
Mass (kg)
RCS (m²)

Purposes: comms

External: N2YO · Heavens-Above · Gunter

§ Orbital elements

Epoch: 2026-05-24T15:14:05.156160Z

Period
1,436.08 min
Inclination
0.2618°
Eccentricity
0.0001738
Mean motion
1.00273134 rev/d
Perigee alt
35,778.9 km
Apogee alt
35,793.5 km
Semi-major
42,164.4 km
B*
0.0000e+0
RAAN
85.5364°
Arg perigee
254.8014°
Mean anomaly
18.6459°
Rev number
1,633

§ Raw data

STPSAT-61 49817U 21118A   26144.63478190 -.00000049  00000+0  00000+0 0  99992 49817   0.2618  85.5364 0001738 254.8014  18.6459  1.00273134 16339

JSON: /api/v1/satellites/49817 · /tle

For live sub-satellite position, see the globe view (requires WebGL).

§ Visibility from observer

Set your observer location to see the next 7 days of passes ≥ 10°. The values pass through the URL so the page stays shareable.

No JS? Fill the form by hand. The geolocation button needs JavaScript.